[[{"header":{"parameterUnit":"m.s-1","parameterCategory":1,"la1":30.2991,"la2":30.254,"lo1":-89.0895,"lo2":-89.0444,"dy":0.0017,"dx":0.0017,"nx":28,"ny":28,"refTime":"2024-06-06T03:00:00:Z","depth":0,"parameterNumber":2,"parameterNumberName":"U-component_of_WINDS"},"data":[0,0,0,0,0,0,0,0,0,0,0,0,0,0,0,0,0,0,0,0,0,0,0,0,0,0,0,0,0,0,0,0,0,0,0,0,0,0,0,0,0,0,0,0,0,0,0,0,0,0,0,0,0,0,0,0,0,0,1.1271,1.1272,0,1.1301,1.1302,1.1302,1.1298,1.1298,1.1297,1.1297,1.1327,1.1328,1.1329,0,0,0,0,0,0,0,0,0,0,0,0,0,1.1209,1.121,1.1271,1.1272,1.1272,1.1301,1.1302,1.1302,1.1298,1.1298,1.1297,1.1297,1.1326,1.1328,1.1329,0,0,0,0,0,0,0,0,0,0,0,0,0,1.1237,1.1211,1.1271,1.1274,1.1274,1.1301,1.1302,1.1302,1.1298,1.1298,1.1297,1.1296,1.1326,1.1328,1.133,1.1356,0,0,1.1335,1.1336,0,0,0,0,0,0,0,0,1.1236,1.124,1.1273,1.1274,1.1274,1.1295,1.1291,1.132,1.1299,1.1289,1.1297,1.1296,1.1317,1.1319,1.1327,1.1357,1.1358,1.1335,1.1337,1.1337,1.1338,0,0,0,0,0,0,0,1.1234,1.1238,1.1283,1.1274,1.1274,1.1273,1.1276,1.1296,1.1307,1.129,1.129,1.1293,1.1317,1.1325,1.1327,1.1359,1.1335,1.1337,1.1338,1.1339,1.1409,1.141,0,0,0,0,0,0,1.1231,1.1237,1.1282,1.1284,1.1253,1.1274,1.1278,1.1289,1.1306,1.1308,1.1294,1.1293,1.1322,1.1325,1.1328,1.1358,1.1337,1.1339,1.134,1.1408,1.1409,1.141,0,0,0,0,0,0,1.123,1.1235,1.1281,1.126,1.1266,1.1276,1.1289,1.129,1.1298,1.131,1.1311,1.13,1.1321,1.1326,1.1348,1.1359,1.134,1.1342,1.1407,1.1408,1.1409,1.1418,0,0,0,0,0,0,1.1228,1.1235,1.1246,1.1261,1.1267,1.1301,1.129,1.1291,1.1301,1.13,1.1316,1.1317,1.1321,1.1345,1.135,1.1361,1.1343,1.1406,1.1408,1.1409,1.1417,1.142,1.1422,0,0,0,0,0,1.1226,1.1248,1.1246,1.1252,1.1281,1.1302,1.1306,1.131,1.1302,1.1312,1.1319,1.1317,1.1357,1.1348,1.1353,1.1365,1.1406,1.1407,1.1409,1.1416,1.1419,1.1422,0,0,0,0,0,0,1.1234,1.125,1.1248,1.1276,1.1287,1.1301,1.1314,1.1313,1.1327,1.1326,1.133,1.1333,1.1355,1.1363,1.1352,1.1389,1.138,1.1383,1.1384,1.1387,1.1389,1.1387,1.1345,0,0,0,0,0,1.1239,1.1256,1.1268,1.1291,1.1297,1.1304,1.1314,1.1316,1.1328,1.1333,1.1342,1.1353,1.1368,1.1378,1.1393,1.1418,1.142,1.1429,1.1431,1.1433,1.1435,1.1447,1.145,1.1415,1.1415,1.1415,0,0,1.125,1.126,1.127,1.1293,1.1302,1.1317,1.1309,1.1326,1.1338,1.1336,1.1357,1.1363,1.1377,1.14,1.1411,1.1407,1.1445,1.1435,1.1436,1.1437,1.1449,1.1452,1.1455,1.1416,1.1416,1.1416,0,0,1.1276,1.1287,1.1306,1.1315,1.1329,1.1333,1.1338,1.1351,1.1355,1.1377,1.1375,1.1388,1.1414,1.1423,1.1431,1.1458,1.1456,1.1463,1.1475,1.1486,1.1488,1.1491,1.1499,1.1502,1.1465,1.1465,1.1465,0,1.1288,1.1312,1.1315,1.1332,1.1341,1.134,1.1358,1.1366,1.1384,1.139,1.1385,1.1416,1.1425,1.1449,1.1456,1.1463,1.1467,1.1461,1.1488,1.149,1.1493,1.15,1.1503,1.1466,1.1466,1.1465,1.1465,0,1.1324,1.134,1.1354,1.137,1.138,1.1398,1.1403,1.1413,1.1414,1.1418,1.1439,1.1449,1.1465,1.1471,1.1472,1.1494,1.1491,1.1487,1.1478,1.1496,1.1503,1.1507,1.1466,1.1466,1.1466,1.1466,0,0,1.1357,1.1374,1.1379,1.1385,1.1399,1.1412,1.1428,1.1443,1.145,1.1463,1.1475,1.1497,1.1492,1.1501,1.1503,1.1513,1.1531,1.1507,1.1507,1.151,1.1554,1.1556,1.156,1.153,1.153,1.1531,1.1553,0,1.1384,1.1413,1.1416,1.1442,1.1456,1.1453,1.1468,1.1477,1.1482,1.1493,1.1498,1.1512,1.1507,1.1511,1.1521,1.1527,1.154,1.1525,1.1541,1.1541,1.1536,1.1564,1.1567,1.1587,1.1556,1.1556,1.1556,0,1.1419,1.1431,1.1458,1.1468,1.1474,1.1487,1.1499,1.1511,1.1521,1.1524,1.1532,1.1532,1.1548,1.1538,1.1559,1.1549,1.1555,1.1558,1.1559,1.156,1.1549,1.1564,1.1594,1.1596,1.1561,1.1561,1.156,0,1.1438,1.1461,1.148,1.1486,1.1498,1.1507,1.1513,1.1522,1.153,1.1541,1.1545,1.1558,1.1565,1.1574,1.1577,1.157,1.1596,1.1588,1.1598,1.1598,1.1603,1.1603,1.1633,1.1609,1.1609,1.1609,1.1609,0,1.1467,1.1484,1.1488,1.15,1.1517,1.152,1.1537,1.1542,1.155,1.1561,1.156,1.157,1.1574,1.1585,1.1587,1.1602,1.1606,1.1607,1.1608,1.1607,1.1606,1.161,1.1609,1.161,1.161,1.1609,1.1609,0,1.1492,1.1496,1.1516,1.1525,1.1528,1.154,1.1548,1.1558,1.1562,1.1576,1.158,1.1585,1.1598,1.1601,1.1617,1.1618,1.1636,1.1635,1.1632,1.1632,1.1641,1.164,1.1674,1.1678,1.1653,1.1653,1.1653,0,1.1509,1.1521,1.1532,1.1539,1.1545,1.1557,1.1565,1.1567,1.1575,1.1586,1.1594,1.1606,1.1616,1.1636,1.1641,1.1652,1.1651,1.1663,1.1653,1.1651,1.165,1.1648,1.1649,1.1664,1.1664,1.1665,1.1665,0,1.1539,1.154,1.1551,1.1562,1.1571,1.158,1.1589,1.1595,1.1598,1.1607,1.1619,1.1627,1.1642,1.1653,1.1664,1.1669,1.1667,1.1668,1.167,1.1669,1.1666,1.1666,1.1636,1.1667,1.1667,1.1667,1.1666,1.1666,1.156,1.1569,1.1577,1.1589,1.1596,1.1603,1.1613,1.1617,1.1627,1.1639,1.164,1.1653,1.1661,1.1675,1.168,1.169,1.1687,1.1691,1.1692,1.1692,1.1692,1.1665,1.1692,1.1692,1.1692,1.1692,1.1692,0,1.1588,1.1593,1.1603,1.1615,1.1624,1.1621,1.163,1.1637,1.1648,1.1656,1.1665,1.1678,1.1689,1.1694,1.1705,1.1711,1.171,1.1714,1.1713,1.1714,1.1696,1.1692,1.1714,1.1714,1.1714,1.1714,1.1714,1.1714,1.1603,1.1619,1.1621,1.1639,1.1644,1.1656,1.1661,1.1668,1.1673,1.1688,1.1697,1.17,1.1706,1.1716,1.1726,1.1727,1.173,1.1734,1.1734,1.1717,1.1715,1.1713,1.1709,1.1735,1.1735,1.1751,1.1751,1.1751]},{"header":{"parameterUnit":"m.s-1","parameterCategory":1,"la1":30.2991,"la2":30.254,"lo1":-89.0895,"lo2":-89.0444,"dy":0.0017,"dx":0.0017,"nx":28,"ny":28,"refTime":"2024-06-06T03:00:00:Z","depth":0,"parameterNumber":3,"parameterNumberName":"V-component_of_WINDS"},"data":[0,0,0,0,0,0,0,0,0,0,0,0,0,0,0,0,0,0,0,0,0,0,0,0,0,0,0,0,0,0,0,0,0,0,0,0,0,0,0,0,0,0,0,0,0,0,0,0,0,0,0,0,0,0,0,0,0,0,4.1082,4.1083,0,4.1177,4.1178,4.1179,4.1159,4.1157,4.1155,4.1153,4.1245,4.1249,4.1253,0,0,0,0,0,0,0,0,0,0,0,0,0,4.0876,4.0879,4.1082,4.1083,4.1085,4.1177,4.1178,4.118,4.1159,4.1157,4.1155,4.1153,4.1244,4.1248,4.1253,0,0,0,0,0,0,0,0,0,0,0,0,0,4.0967,4.0881,4.1082,4.1086,4.1087,4.1177,4.1178,4.118,4.1159,4.1157,4.1154,4.1152,4.1242,4.1248,4.1254,4.1345,0,0,4.1273,4.1275,0,0,0,0,0,0,0,0,4.0962,4.0975,4.1084,4.1085,4.1087,4.1154,4.1139,4.1235,4.116,4.1132,4.1153,4.115,4.1216,4.1224,4.1248,4.1349,4.1353,4.1273,4.1277,4.128,4.1281,0,0,0,0,0,0,0,4.0956,4.0971,4.112,4.1085,4.1087,4.108,4.109,4.1157,4.1187,4.1134,4.1133,4.1144,4.1217,4.1242,4.125,4.1354,4.1273,4.1279,4.1282,4.1285,4.1531,4.1534,0,0,0,0,0,0,4.0949,4.0965,4.1117,4.1122,4.1017,4.1086,4.1097,4.1135,4.1187,4.1192,4.1147,4.1143,4.1233,4.1243,4.1253,4.1361,4.128,4.1285,4.1289,4.1529,4.1532,4.1535,0,0,0,0,0,0,4.0945,4.0963,4.1113,4.1044,4.1062,4.1092,4.1135,4.1138,4.1163,4.1196,4.1201,4.1168,4.1231,4.1244,4.1322,4.1364,4.1288,4.1294,4.1525,4.153,4.1534,4.1578,0,0,0,0,0,0,4.0939,4.0961,4.0998,4.1045,4.1066,4.1182,4.1137,4.1142,4.1175,4.1171,4.1217,4.1222,4.123,4.1313,4.1328,4.1371,4.1298,4.1521,4.1527,4.1532,4.1573,4.1583,4.1592,0,0,0,0,0,4.0931,4.1006,4.1,4.1018,4.1113,4.1185,4.1197,4.1206,4.1178,4.1214,4.1235,4.1221,4.1357,4.1321,4.1338,4.1383,4.1519,4.1526,4.1532,4.1569,4.1581,4.1592,0,0,0,0,0,0,4.0962,4.1012,4.1006,4.1099,4.1138,4.1181,4.1227,4.122,4.1266,4.1261,4.1268,4.1279,4.1357,4.1378,4.1337,4.1472,4.1433,4.1444,4.1456,4.1468,4.1478,4.147,4.1303,0,0,0,0,0,4.098,4.1036,4.1076,4.1154,4.1174,4.1197,4.1229,4.1232,4.1273,4.1289,4.1315,4.1353,4.1404,4.1437,4.1486,4.1576,4.1584,4.1615,4.1625,4.1632,4.1641,4.1687,4.1701,4.1556,4.1556,4.1556,0,0,4.1016,4.1051,4.1086,4.1161,4.1192,4.1247,4.1211,4.1272,4.1313,4.1297,4.1372,4.1393,4.1435,4.1518,4.1557,4.1538,4.1682,4.1641,4.1647,4.1651,4.1695,4.1709,4.1721,4.1561,4.156,4.1559,0,0,4.1111,4.1144,4.1212,4.1243,4.1291,4.1305,4.1321,4.1366,4.1379,4.1455,4.1444,4.1491,4.1579,4.1609,4.1636,4.174,4.1728,4.1756,4.1806,4.1851,4.1862,4.1872,4.1907,4.192,4.1764,4.1764,4.1764,0,4.115,4.1236,4.1246,4.1309,4.134,4.133,4.1396,4.1426,4.1486,4.1507,4.1486,4.1596,4.1623,4.1713,4.1738,4.1761,4.1777,4.175,4.186,4.187,4.188,4.1913,4.1927,4.1767,4.1767,4.1766,4.1766,0,4.1281,4.134,4.1388,4.1448,4.1486,4.1549,4.1567,4.1603,4.1602,4.1618,4.1694,4.1727,4.1781,4.1802,4.1803,4.1891,4.1878,4.1859,4.182,4.1896,4.1928,4.1941,4.1771,4.177,4.1769,4.1769,0,0,4.1398,4.1462,4.148,4.1506,4.1556,4.1601,4.1663,4.1718,4.1747,4.1789,4.1839,4.1913,4.1895,4.1925,4.1928,4.1968,4.2046,4.1944,4.1945,4.196,4.2142,4.2156,4.2171,4.2038,4.2041,4.2043,4.2138,0,4.1497,4.1609,4.1618,4.1717,4.1771,4.1761,4.1814,4.1849,4.1865,4.1911,4.1928,4.1979,4.1953,4.1971,4.201,4.2028,4.2082,4.2022,4.2083,4.2085,4.2072,4.2188,4.2202,4.2291,4.2151,4.2153,4.2154,0,4.1627,4.1673,4.1778,4.1819,4.1842,4.189,4.194,4.1985,4.2023,4.2032,4.2065,4.2062,4.2123,4.2082,4.2164,4.2123,4.2148,4.2161,4.2164,4.2169,4.2124,4.2194,4.2319,4.2332,4.2174,4.2173,4.2171,0,4.17,4.1788,4.1862,4.1885,4.1935,4.1969,4.1991,4.2027,4.2059,4.2101,4.2121,4.217,4.2196,4.2232,4.2241,4.2211,4.2322,4.2283,4.2329,4.2328,4.2352,4.235,4.2481,4.237,4.237,4.237,4.237,0,4.1808,4.1872,4.1895,4.194,4.201,4.202,4.2088,4.2108,4.214,4.2187,4.218,4.2224,4.2234,4.2279,4.2286,4.2351,4.2363,4.237,4.2371,4.237,4.2369,4.2386,4.2379,4.2374,4.2373,4.2372,4.2371,0,4.1901,4.192,4.1999,4.204,4.2052,4.2102,4.2136,4.2178,4.2192,4.2251,4.2265,4.2288,4.234,4.2353,4.2414,4.2419,4.2496,4.2491,4.2483,4.2482,4.2527,4.2522,4.2673,4.2692,4.257,4.2571,4.2572,0,4.1969,4.2018,4.2065,4.2096,4.212,4.2171,4.2203,4.2213,4.2247,4.2293,4.2329,4.238,4.2422,4.2505,4.2525,4.2571,4.2567,4.2617,4.2574,4.2571,4.2565,4.2562,4.2566,4.2624,4.2626,4.2627,4.2628,0,4.2086,4.2092,4.214,4.219,4.2229,4.2269,4.2306,4.2332,4.2347,4.2384,4.2438,4.247,4.2533,4.2583,4.263,4.2649,4.264,4.2641,4.2654,4.2653,4.2645,4.2648,4.2504,4.2637,4.2636,4.2636,4.2635,4.2635,4.2167,4.2209,4.2248,4.2301,4.233,4.2366,4.2406,4.2426,4.2472,4.2525,4.2528,4.2585,4.262,4.2681,4.2704,4.2747,4.2732,4.2751,4.2755,4.276,4.2763,4.2639,4.2756,4.2756,4.2756,4.2755,4.2755,0,4.2282,4.2306,4.2355,4.2408,4.2449,4.2438,4.2479,4.2513,4.2564,4.2598,4.264,4.27,4.2748,4.2772,4.2819,4.2848,4.2845,4.286,4.2857,4.2862,4.2775,4.2758,4.2862,4.2862,4.2862,4.2862,4.2862,4.2862,4.2347,4.2417,4.2427,4.2511,4.2534,4.2592,4.2616,4.2647,4.2674,4.2742,4.2783,4.2799,4.2827,4.2876,4.2919,4.2924,4.2941,4.2958,4.2961,4.2879,4.2868,4.2858,4.2842,4.2962,4.2962,4.3044,4.3045,4.3045]}]]